Showing default

HEAD-1, 43011

Orbit data source: Space-Track

HEAD-1, 43011 is a payload satellite owned by HEAD (CN) in SSO that was launched on Tue, 14 Nov 2017 UTC via a CHANG ZHENG 4C launch vehicle from the Taiyaun Space Center, China (TSC). Payload-class satellites include a variety of spacecraft equipped with specific instruments for various scientific and technological missions. These include communications satellites like Starlink; space stations such as the ISS; scientific satellites like the Hubble; Earth observation satellites from companies like Planet Labs, Umbra, and HawkEye 360; GPS; miniature CubeSats for education and research; and military/defense satellites.

Loading next visibility...
Identifier
43011, 2017-072B
Orbit
SSO
Country
Flag of CNCN / PRC
Related business
Manufacturer
LIZH/SAST
Mission
Operational Commercial Communications
Bus & Motor
HEAD-1, Unknown motor
Mass
45 kg wet, 45 kg dry
Launch date (UTC)
2017-11-14 (8 years ago)
Launch vehicle
CHANG ZHENG 4C
Launch site
Taiyaun Space Center, China (TSC)
Object type
Payload
Rocket body
Debris
Shape & HBR
Box + 2 Pan, 1.0 m
Radar Cross Section
0.223 m², Medium (>0.1 m² and < 1m²)

Expand to show TLE details & history
Last TLE update: 7 hours ago

TLE from 7 hours ago
0 HEAD-1
1 43011U 17072B   25296.59834865  .00000503  00000-0  21906-3 0  9997
2 43011  98.9661 303.6990 0010939 117.9908 242.2380 14.28580339413571
Epoch: 2025-10-23T14:21Z
TLE epoch observation values (Epoch: 2025-10-23T14:21:37.323Z)
Latitude
-0.00007°
Longitude
56.0382°
Altitude
803.061 km
Speed
7.45 km/s
True Right ascension
20h 14m 47s
True Declination
0° 00' 00"
Sunlit
Object was in daylight at epoch
Visualization orbit readout
Latitude
Unknown
Longitude
Unknown
Altitude
Unknown
Speed
Unknown
Apparent Right ascension
Unknown
Apparent Declination
Unknown
Sunlit
N/A
Visualization observer readout
Local Sidereal Time
16:44:51
Azimuth
Unknown
Elevation
Unknown
Doppler factor
Unknown
Orbital elements
Apogee altitude
801.485 km
Perigee altitude
785.795 km
Semi-major axis
7,171.777 km
Eccentricity
0.00109
Inclination
98.9661°
RAAN
303.699°
Arg. of periapsis
117.9908°
True anomaly
242.12715°
Mean anomaly
242.238°
Eccentric anomaly
242.18257°
Mean motion
3.57358 °/min
Orbital period
100.74 mins
BSTAR
0.00021906
Loading maneuver chart data...
Computing Atmospheric mass density...
Loading historical data...
Loading historical data...
Loading historical data...
Loading historical data...
Loading historical data...
Loading historical data...
Loading historical data...
Other satellites on launch #72 in the year 2017 (2017-11-14 UTC)

Documentation

Showing up to 5 results
|